Newcastle, WY

10:35 PM MST on January 20, 2017 (GMT -0700)
Newcastle

Weather History for KECS - November, 2013

Change the Weather History Date:

Monday, November 4, 2013

  Actual Average (KCUT) Record (KCUT)
Temperature  
Mean Temperature 31 °F -  
Max Temperature 39 °F 48 °F 72 °F (1949)
Min Temperature 23 °F 23 °F -9 °F (1956)
Degree Days  
Heating Degree Days 34    
Moisture  
Dew Point 21 °F    
Average Humidity 64    
Maximum Humidity 93    
Minimum Humidity 45    
Precipitation  
Precipitation 0.00 in - - ()
Sea Level Pressure  
Sea Level Pressure 29.96 in    
Wind  
Wind Speed 7 mph (NW)    
Max Wind Speed 13 mph    
Max Gust Speed 17 mph    
Visibility 10 miles    
Events Snow    
Averages and records for this station are not official NWS values.
T = Trace of Precipitation, MM = Missing Value Source: NWS Daily Summary

Daily Weather History Graph

Daily Weather History Graph

Search for Another Location

Airport or City:

Trip Planner

Search our weather history database for the weather conditions in past years. The results will help you decide how hot, cold, wet, or windy it might be!

Date:

Astronomy

Nov. 04, 2013 Rise Set
Actual Time 6:37 AM MST 4:43 PM MST
Civil Twilight 6:07 AM MST 5:13 PM MST
Nautical Twilight 5:33 AM MST 5:47 PM MST
Astronomical Twilight 4:59 AM MST 6:21 PM MST
Moon 7:53 AM MST (11/4) 5:47 PM MST (11/4)
Length of Visible Light 11h 05m
Length of Day
10h 05m
New Moon, 2% of the Moon is Illuminated
Nov 4
New Moon
Nov 9
First Quarter
Nov 17
Full
Nov 25
Last Quarter
Dec 2
New

Hourly Weather History & Observations

Time (MST) Temp. Windchill Dew Point Humidity Pressure Visibility Wind Dir Wind Speed Gust Speed Precip Events Conditions
12:15 AM 33.8 °F 28.6 °F 23.0 °F 65% 29.86 in 10.0 mi NNW 5.8 mph - N/A   Clear
12:35 AM 33.8 °F 27.0 °F 23.0 °F 65% 29.87 in 10.0 mi NW 8.1 mph - N/A   Clear
12:55 AM 33.8 °F 27.7 °F 23.0 °F 65% 29.87 in 10.0 mi NNW 6.9 mph - N/A   Clear
1:15 AM 32.0 °F 25.6 °F 23.0 °F 69% 29.87 in 10.0 mi WNW 6.9 mph - N/A   Clear
1:35 AM 32.0 °F 25.6 °F 23.0 °F 69% 29.89 in 10.0 mi WNW 6.9 mph - N/A   Clear
1:55 AM 32.0 °F 23.6 °F 23.0 °F 69% 29.89 in 10.0 mi NW 10.4 mph - N/A   Clear
2:15 AM 32.0 °F 25.6 °F 23.0 °F 69% 29.89 in 10.0 mi NW 6.9 mph - N/A   Clear
2:35 AM 32.0 °F 24.2 °F 23.0 °F 69% 29.89 in 10.0 mi NNW 9.2 mph - N/A   Clear
2:55 AM 30.2 °F 24.3 °F 23.0 °F 75% 29.90 in 10.0 mi NNW 5.8 mph - N/A   Scattered Clouds
3:15 AM 30.2 °F 24.3 °F 23.0 °F 75% 29.90 in 10.0 mi NNW 5.8 mph - N/A   Mostly Cloudy
3:35 AM 30.2 °F 24.3 °F 23.0 °F 75% 29.90 in 10.0 mi NNW 5.8 mph - N/A   Scattered Clouds
3:55 AM 26.6 °F 19.1 °F 21.2 °F 80% 29.91 in 10.0 mi NW 6.9 mph - N/A   Scattered Clouds
4:15 AM 28.4 °F 22.2 °F 23.0 °F 80% 29.91 in 10.0 mi NNW 5.8 mph - N/A   Mostly Cloudy
4:35 AM 28.4 °F 21.2 °F 21.2 °F 74% 29.92 in 10.0 mi NNW 6.9 mph - N/A   Scattered Clouds
4:55 AM 28.4 °F 21.2 °F 21.2 °F 74% 29.93 in 10.0 mi NNW 6.9 mph - N/A   Clear
5:15 AM 28.4 °F 23.3 °F 21.2 °F 74% 29.93 in 10.0 mi NNW 4.6 mph - N/A   Clear
5:35 AM 26.6 °F 21.2 °F 21.2 °F 80% 29.94 in 10.0 mi NNW 4.6 mph - N/A   Clear
5:55 AM 23.0 °F 14.7 °F 21.2 °F 93% 29.94 in 10.0 mi NNW 6.9 mph - N/A   Clear
6:15 AM 26.6 °F 19.1 °F 21.2 °F 80% 29.94 in 10.0 mi NNW 6.9 mph - N/A   Clear
6:35 AM 26.6 °F 19.1 °F 19.4 °F 74% 29.95 in 10.0 mi NNW 6.9 mph - N/A   Clear
6:55 AM 26.6 °F 19.1 °F 21.2 °F 80% 29.95 in 10.0 mi North 6.9 mph - N/A   Clear
7:15 AM 26.6 °F 19.1 °F 21.2 °F 80% 29.96 in 10.0 mi North 6.9 mph - N/A   Clear
7:35 AM 28.4 °F 24.6 °F 21.2 °F 74% 29.97 in 10.0 mi North 3.5 mph - N/A   Clear
7:55 AM 30.2 °F 25.4 °F 21.2 °F 69% 29.98 in 10.0 mi NNW 4.6 mph - N/A   Clear
8:15 AM 32.0 °F 26.4 °F 23.0 °F 69% 29.99 in 10.0 mi North 5.8 mph - N/A   Clear
8:35 AM 32.0 °F 25.6 °F 23.0 °F 69% 29.99 in 10.0 mi NNW 6.9 mph - N/A   Clear
8:55 AM 32.0 °F 24.8 °F 23.0 °F 69% 29.99 in 10.0 mi NW 8.1 mph - N/A   Clear
9:15 AM 32.0 °F 24.8 °F 23.0 °F 69% 29.99 in 10.0 mi NNW 8.1 mph - N/A   Clear
9:35 AM 33.8 °F 28.6 °F 23.0 °F 65% 29.98 in 10.0 mi NNW 5.8 mph - N/A   Clear
9:55 AM 33.8 °F 25.8 °F 23.0 °F 65% 29.98 in 10.0 mi NW 10.4 mph - N/A   Clear
10:15 AM 35.6 °F 28.6 °F 21.2 °F 56% 29.98 in 10.0 mi NW 9.2 mph - N/A   Clear
10:35 AM 35.6 °F 28.0 °F 21.2 °F 56% 29.99 in 10.0 mi NW 10.4 mph - N/A   Clear
10:55 AM 35.6 °F 31.7 °F 21.2 °F 56% 29.99 in 10.0 mi West 4.6 mph - N/A   Clear
11:15 AM 35.6 °F 29.9 °F 21.2 °F 56% 29.99 in 10.0 mi WNW 6.9 mph - N/A   Clear
11:35 AM 37.4 °F 34.9 °F 21.2 °F 52% 29.99 in 10.0 mi WSW 3.5 mph - N/A   Clear
11:55 AM 37.4 °F 32.1 °F 19.4 °F 48% 29.98 in 10.0 mi West 6.9 mph - N/A   Clear
12:15 PM 39.2 °F 37.0 °F 19.4 °F 45% 29.97 in 10.0 mi West 3.5 mph - N/A   Scattered Clouds
12:35 PM 37.4 °F 33.8 °F 19.4 °F 48% 29.97 in 10.0 mi West 4.6 mph - N/A   Scattered Clouds
12:55 PM 37.4 °F 33.8 °F 19.4 °F 48% 29.95 in 10.0 mi West 4.6 mph - N/A   Scattered Clouds
1:15 PM 37.4 °F - 17.6 °F 45% 29.95 in 10.0 mi Calm Calm - N/A   Scattered Clouds
1:35 PM 37.4 °F - 17.6 °F 45% 29.95 in 10.0 mi Calm Calm - N/A   Scattered Clouds
1:55 PM 37.4 °F 34.9 °F 17.6 °F 45% 29.95 in 10.0 mi WSW 3.5 mph - N/A   Clear
2:15 PM 37.4 °F 32.1 °F 17.6 °F 45% 29.95 in 10.0 mi South 6.9 mph - N/A   Clear
2:35 PM 37.4 °F 33.8 °F 17.6 °F 45% 29.95 in 10.0 mi South 4.6 mph - N/A   Clear
2:55 PM 37.4 °F 32.1 °F 19.4 °F 48% 29.95 in 10.0 mi SSE 6.9 mph - N/A   Clear
3:15 PM 37.4 °F 32.8 °F 17.6 °F 45% 29.95 in 10.0 mi SE 5.8 mph - N/A   Clear
3:35 PM 37.4 °F 32.1 °F 17.6 °F 45% 29.96 in 10.0 mi SE 6.9 mph - N/A   Clear
3:55 PM 37.4 °F 31.4 °F 19.4 °F 48% 29.96 in 10.0 mi SE 8.1 mph - N/A   Scattered Clouds
4:15 PM 35.6 °F 29.2 °F 19.4 °F 52% 29.97 in 10.0 mi SSE 8.1 mph - N/A   Clear
4:35 PM 35.6 °F 30.7 °F 19.4 °F 52% 29.97 in 10.0 mi SE 5.8 mph - N/A   Clear
4:55 PM 33.8 °F 28.6 °F 17.6 °F 52% 29.97 in 10.0 mi SE 5.8 mph - N/A   Clear
5:15 PM 33.8 °F 28.6 °F 19.4 °F 56% 29.97 in 10.0 mi SE 5.8 mph - N/A   Scattered Clouds
5:35 PM 33.8 °F 27.7 °F 19.4 °F 56% 29.98 in 10.0 mi SE 6.9 mph - N/A   Mostly Cloudy
5:55 PM 33.8 °F 28.6 °F 19.4 °F 56% 29.99 in 10.0 mi SE 5.8 mph - N/A   Mostly Cloudy
6:15 PM 33.8 °F 27.7 °F 19.4 °F 56% 29.99 in 10.0 mi SE 6.9 mph - N/A   Scattered Clouds
6:35 PM 33.8 °F 27.7 °F 17.6 °F 52% 29.99 in 10.0 mi SE 6.9 mph - N/A   Clear
6:55 PM 33.8 °F 28.6 °F 17.6 °F 52% 29.99 in 10.0 mi ESE 5.8 mph - N/A   Scattered Clouds
7:15 PM 33.8 °F 27.7 °F 17.6 °F 52% 29.99 in 10.0 mi ESE 6.9 mph - N/A   Scattered Clouds
7:35 PM 33.8 °F 27.0 °F 17.6 °F 52% 29.99 in 10.0 mi ESE 8.1 mph - N/A   Clear
7:55 PM 35.6 °F 29.9 °F 17.6 °F 48% 30.00 in 10.0 mi SE 6.9 mph - N/A   Clear
8:15 PM 33.8 °F 27.0 °F 17.6 °F 52% 30.00 in 10.0 mi SE 8.1 mph - N/A   Clear
8:35 PM 33.8 °F 27.7 °F 17.6 °F 52% 30.00 in 10.0 mi SE 6.9 mph - N/A   Clear
8:55 PM 33.8 °F 28.6 °F 17.6 °F 52% 30.02 in 10.0 mi SSE 5.8 mph - N/A   Clear
9:15 PM 33.8 °F 26.4 °F 19.4 °F 56% 30.02 in 10.0 mi SSE 9.2 mph - N/A   Clear
9:35 PM 33.8 °F 26.4 °F 21.2 °F 60% 30.03 in 10.0 mi SSE 9.2 mph - N/A   Scattered Clouds
9:55 PM 33.8 °F 24.8 °F 23.0 °F 65% 30.03 in 10.0 mi SSE 12.7 mph 17.3 mph N/A   Scattered Clouds
10:15 PM 32.0 °F 23.0 °F 28.4 °F 87% 30.04 in 10.0 mi SSE 11.5 mph - N/A   Mostly Cloudy
10:35 PM 32.0 °F 24.8 °F 30.2 °F 93% 30.04 in 2.5 mi SSE 8.1 mph - N/A Snow Light Snow
10:55 PM 32.0 °F 23.6 °F 30.2 °F 93% 30.04 in 3.0 mi SSE 10.4 mph - N/A Snow Light Snow
11:15 PM 32.0 °F 24.8 °F 30.2 °F 93% 30.04 in 2.0 mi SSE 8.1 mph - N/A Snow Light Snow
11:35 PM 32.0 °F 24.8 °F 30.2 °F 93% 30.04 in 1.5 mi SE 8.1 mph - N/A Snow Light Snow
11:55 PM 32.0 °F 25.6 °F 30.2 °F 93% 30.04 in 2.5 mi ESE 6.9 mph - N/A Snow Light Snow